Skagway, AK

7:00 PM AKST on February 20, 2018 (GMT -0900)
Skagway

Weather History for PAGY - December, 2011

Change the Weather History Date:

Tuesday, December 13, 2011

  Actual Average Record
Temperature  
Mean Temperature 34 °F -  
Max Temperature 37 °F 32 °F 49 °F (1989)
Min Temperature 32 °F 24 °F -7 °F (1971)
Degree Days  
Heating Degree Days 30    
Moisture  
Dew Point 30 °F    
Average Humidity 87    
Maximum Humidity 96    
Minimum Humidity 76    
Precipitation  
Precipitation 0.01 in - - ()
Sea Level Pressure  
Sea Level Pressure 29.88 in    
Wind  
Wind Speed 7 mph (SSW)    
Max Wind Speed 16 mph    
Max Gust Speed -    
Visibility 9 miles    
Events Rain , Snow    
Averages and records for this station are not official NWS values.
T = Trace of Precipitation, MM = Missing Value Source: NWS Daily Summary

Daily Weather History Graph

Daily Weather History Graph

Search for Another Location

Airport or City:

Trip Planner

Search our weather history database for the weather conditions in past years. The results will help you decide how hot, cold, wet, or windy it might be!

Date:

Astronomy

Dec. 13, 2011 Rise Set
Actual Time 8:51 AM AKST 2:59 PM AKST
Civil Twilight 7:55 AM AKST 3:55 PM AKST
Nautical Twilight 7:00 AM AKST 4:50 PM AKST
Astronomical Twilight 6:09 AM AKST 5:40 PM AKST
Moon 6:58 PM AKST (12/13) 10:34 AM AKST (12/13)
Length of Visible Light 7h 59m
Length of Day
6h 08m
Waning Gibbous, 89% of the Moon is Illuminated
Dec 13
Waning Gibbous
Dec 17
Last Quarter
Dec 24
New
Dec 31
First Quarter
Jan 8
Full

Hourly Weather History & Observations

Time (AKST) Temp. Windchill Dew Point Humidity Pressure Visibility Wind Dir Wind Speed Gust Speed Precip Events Conditions
12:53 AM 37.9 °F 28.9 °F 30.9 °F 76% 29.79 in 10.0 mi SSW 16.1 mph - 0.00 in Rain Light Rain
1:53 AM 37.9 °F 28.9 °F 30.9 °F 76% 29.79 in 10.0 mi SSW 16.1 mph - 0.00 in Rain Light Rain
3:53 AM 36.0 °F 31.1 °F 32.0 °F 86% 29.80 in 7.0 mi South 5.8 mph - 0.00 in Rain Light Rain
4:53 AM 36.0 °F 29.6 °F 30.0 °F 79% 29.79 in 10.0 mi South 8.1 mph - 0.00 in   Partly Cloudy
5:53 AM 36.0 °F 31.1 °F 30.0 °F 79% 29.79 in 10.0 mi South 5.8 mph - 0.00 in   Clear
6:53 AM 34.0 °F - 28.9 °F 82% 29.80 in 10.0 mi Calm Calm - 0.00 in   Clear
7:41 AM 32.0 °F 27.5 °F 30.2 °F 93% 29.80 in 10.0 mi NE 4.6 mph - N/A   Mostly Cloudy
7:53 AM 32.0 °F 27.5 °F 30.0 °F 92% 29.81 in 10.0 mi NNE 4.6 mph - 0.00 in   Mostly Cloudy
8:29 AM 32.0 °F - 30.2 °F 93% 29.81 in 7.0 mi Calm Calm - 0.00 in Snow Light Snow
8:53 AM 33.1 °F 26.9 °F 30.9 °F 92% 29.82 in 8.0 mi SW 6.9 mph - 0.00 in Snow Light Snow
9:53 AM 32.0 °F - 30.9 °F 96% 29.84 in 8.0 mi Calm Calm - 0.00 in   Overcast
10:19 AM 33.8 °F - 30.2 °F 87% 29.84 in 10.0 mi Calm Calm - 0.00 in Rain Light Rain
10:34 AM 33.8 °F - 30.2 °F 87% 29.85 in 9.0 mi Calm Calm - 0.00 in Rain Light Rain
10:43 AM 33.8 °F 27.7 °F 30.2 °F 87% 29.85 in 1.8 mi SSW 6.9 mph - 0.00 in Snow Light Snow
10:50 AM 33.8 °F 28.6 °F 30.2 °F 87% 29.85 in 1.0 mi SW 5.8 mph - 0.00 in Snow Light Snow
10:53 AM 33.1 °F 27.7 °F 30.9 °F 92% 29.86 in 1.5 mi SW 5.8 mph - 0.00 in Snow Light Snow
10:55 AM 33.8 °F 28.6 °F 30.2 °F 87% 29.85 in 3.0 mi SW 5.8 mph - 0.00 in Snow Light Snow
11:35 AM 33.8 °F - 30.2 °F 87% 29.86 in 7.0 mi Calm Calm - 0.00 in Rain Light Rain
11:45 AM 33.8 °F - 30.2 °F 87% 29.86 in 9.0 mi Calm Calm - 0.01 in Rain Light Rain
11:53 AM 33.1 °F - 30.9 °F 92% 29.86 in 10.0 mi Calm Calm - 0.01 in Rain Light Rain
12:18 PM 33.8 °F - 32.0 °F 93% 29.86 in 10.0 mi Calm Calm - 0.00 in Rain Light Rain
12:53 PM 33.1 °F 26.1 °F 30.9 °F 92% 29.87 in 10.0 mi SSW 8.1 mph - 0.00 in Rain Light Rain
1:18 PM 33.8 °F 27.7 °F 30.2 °F 87% 29.87 in 10.0 mi SSW 6.9 mph - 0.00 in   Overcast
1:41 PM 33.8 °F 27.0 °F 30.2 °F 87% 29.87 in 10.0 mi SSW 8.1 mph - 0.00 in   Overcast
1:53 PM 33.1 °F 25.5 °F 30.9 °F 92% 29.87 in 10.0 mi SSW 9.2 mph - 0.00 in   Overcast
2:26 PM 33.8 °F 29.6 °F 30.2 °F 87% 29.88 in 10.0 mi SSW 4.6 mph - N/A   Overcast
2:37 PM 33.8 °F 30.8 °F 30.2 °F 87% 29.88 in 10.0 mi South 3.5 mph - N/A   Overcast
2:53 PM 33.1 °F - 30.9 °F 92% 29.89 in 10.0 mi Calm Calm - 0.00 in Rain Light Rain
3:32 PM 33.8 °F - 30.2 °F 87% 29.89 in 8.0 mi Calm Calm - 0.00 in Snow Light Snow
3:53 PM 33.1 °F 30.0 °F 30.0 °F 89% 29.90 in 10.0 mi Variable 3.5 mph - 0.00 in Rain Light Rain
4:08 PM 33.8 °F - 30.2 °F 87% 29.90 in 10.0 mi Calm Calm - 0.00 in Rain Light Rain
4:53 PM 32.0 °F - 30.0 °F 92% 29.90 in 10.0 mi Calm Calm - 0.00 in   Overcast
5:27 PM 33.8 °F 27.7 °F 28.4 °F 81% 29.91 in 10.0 mi SSW 6.9 mph - 0.00 in Rain Light Rain
5:53 PM 33.1 °F 27.7 °F 30.0 °F 89% 29.92 in 10.0 mi SSW 5.8 mph - 0.00 in   Overcast
6:06 PM 33.8 °F 29.6 °F 28.4 °F 81% 29.92 in 10.0 mi SSW 4.6 mph - N/A   Mostly Cloudy
6:15 PM 32.0 °F 24.2 °F 28.4 °F 87% 29.92 in 10.0 mi SSW 9.2 mph - N/A   Mostly Cloudy
6:25 PM 32.0 °F 23.6 °F 28.4 °F 87% 29.91 in 10.0 mi SSW 10.4 mph - N/A   Mostly Cloudy
6:53 PM 32.0 °F 23.0 °F 28.9 °F 88% 29.92 in 10.0 mi SSW 11.5 mph - N/A   Overcast
7:26 PM 32.0 °F 24.2 °F 28.4 °F 87% 29.93 in 10.0 mi SW 9.2 mph - 0.00 in   Overcast
7:53 PM 32.0 °F 27.5 °F 28.9 °F 88% 29.94 in 10.0 mi NNE 4.6 mph - 0.00 in Rain Light Rain
8:02 PM 33.8 °F - 28.4 °F 81% 29.94 in 10.0 mi Calm Calm - 0.00 in   Overcast
8:53 PM 32.0 °F 25.6 °F 28.9 °F 88% 29.96 in 10.0 mi West 6.9 mph - 0.00 in   Overcast
9:53 PM 32.0 °F 27.5 °F 28.9 °F 88% 29.97 in 10.0 mi West 4.6 mph - 0.00 in   Overcast
10:35 PM 32.0 °F 27.5 °F 28.4 °F 87% 29.98 in 10.0 mi ENE 4.6 mph - 0.00 in   Overcast
10:53 PM 32.0 °F 28.7 °F 28.9 °F 88% 29.98 in 10.0 mi North 3.5 mph - 0.00 in   Overcast
11:08 PM 32.0 °F 28.7 °F 28.4 °F 87% 29.98 in 10.0 mi ENE 3.5 mph - N/A   Overcast
11:45 PM 32.0 °F 28.7 °F 28.4 °F 87% 29.99 in 10.0 mi Variable 3.5 mph - N/A   Overcast
11:53 PM 32.0 °F 28.7 °F 28.9 °F 88% 29.99 in 10.0 mi NE 3.5 mph - 0.00 in   Mostly Cloudy